Location: Ida Center
(41.8662°N, 83.5713°W)
Time: 12:46:28
(UTC+00:00)

NOSS 2-3 (E) - Pass Details

Date: 17 November 2019
Orbit: 595 x 1616 km, 63.4° (Epoch: 29 November)

Event Time Altitude Azimuth Distance (km) Brightness Sun altitude
Rises 23:42:51 0° 222° (SW) 2,826 7.8 -16.9°
Reaches altitude 10° 23:44:59 10° 225° (SW) 1,953 6.9 -17.3°
Maximum altitude 23:49:16 66° 308° (NW) 716 4.0 -18.1°
Enters shadow 23:52:40 20° 27° (NNE) 1,647 5.4 -18.7°
